Meteo pe oră la Bucureşti

Astăzi, 1 Octombrie, Joi

Timp Temperatura Precipitaţii Vânt Presiune Umiditate
00:00 +14°C° 0 mm 5 m/s 747 mmHg 70%
01:00 +13°C° 0 mm 4 m/s 747 mmHg 72%
02:00 +13°C° 0 mm 4 m/s 747 mmHg 74%
03:00 +13°C° 0 mm 4 m/s 747 mmHg 74%
04:00 +13°C° 0 mm 4 m/s 747 mmHg 74%
05:00 +13°C° 0 mm 4 m/s 747 mmHg 74%
06:00 +14°C° 0 mm 5 m/s 747 mmHg 72%
07:00 +14°C° 0 mm 5 m/s 747 mmHg 71%
08:00 +14°C° 0 mm 5 m/s 747 mmHg 69%
09:00 +15°C° 0 mm 5 m/s 747 mmHg 70%
10:00 +15°C° 0 mm 5 m/s 747 mmHg 71%
11:00 +15°C° 0 mm 5 m/s 747 mmHg 72%
12:00 +15°C° 0 mm 5 m/s 747 mmHg 72%
13:00 +15°C° 0 mm 5 m/s 748 mmHg 72%
14:00 +15°C° 0 mm 5 m/s 748 mmHg 72%
15:00 +15°C° 0.1 mm 5 m/s 748 mmHg 70%
16:00 +15°C° 0.1 mm 5 m/s 748 mmHg 68%
17:00 +15°C° 0.1 mm 5 m/s 748 mmHg 67%
18:00 +15°C° 0 mm 4 m/s 748 mmHg 68%
19:00 +14°C° 0 mm 4 m/s 749 mmHg 69%
20:00 +14°C° 0 mm 3 m/s 749 mmHg 71%
21:00 +13°C° 0 mm 3 m/s 749 mmHg 73%
22:00 +13°C° 0 mm 3 m/s 749 mmHg 75%
23:00 +12°C° 0 mm 3 m/s 749 mmHg 78%

Mâine, 2 Octombrie, Vineri

Timp Temperatura Precipitaţii Vânt Presiune Umiditate
00:00 +12°C° 0 mm 3 m/s 749 mmHg 79%
01:00 +12°C° 0 mm 3 m/s 749 mmHg 80%
02:00 +13°C° 0 mm 2 m/s 749 mmHg 81%
03:00 +12°C° 0 mm 2 m/s 750 mmHg 81%
04:00 +12°C° 0 mm 2 m/s 750 mmHg 82%
05:00 +12°C° 0 mm 2 m/s 750 mmHg 82%
06:00 +13°C° 0 mm 2 m/s 750 mmHg 78%
07:00 +14°C° 0 mm 2 m/s 750 mmHg 75%
08:00 +15°C° 0 mm 2 m/s 751 mmHg 71%
09:00 +17°C° 0 mm 2 m/s 751 mmHg 62%
10:00 +19°C° 0 mm 2 m/s 751 mmHg 54%
11:00 +21°C° 0 mm 2 m/s 751 mmHg 45%
12:00 +23°C° 0 mm 2 m/s 751 mmHg 41%
13:00 +25°C° 0 mm 2 m/s 751 mmHg 38%
14:00 +26°C° 0 mm 2 m/s 751 mmHg 34%
15:00 +25°C° 0 mm 1 m/s 751 mmHg 35%
16:00 +25°C° 0 mm 1 m/s 751 mmHg 36%
17:00 +23°C° 0 mm 0 m/s 751 mmHg 36%
18:00 +24°C° 0 mm 1 m/s 752 mmHg 39%
19:00 +22°C° 0 mm 1 m/s 752 mmHg 42%
20:00 +20°C° 0 mm 2 m/s 753 mmHg 45%
21:00 +19°C° 0 mm 2 m/s 753 mmHg 47%
22:00 +19°C° 0 mm 2 m/s 753 mmHg 49%
23:00 +18°C° 0 mm 2 m/s 753 mmHg 51%

Poimâine, 3 Octombrie, Sâmbătă

Timp Temperatura Precipitaţii Vânt Presiune Umiditate
00:00 +18°C° 0 mm 2 m/s 753 mmHg 54%
01:00 +17°C° 0 mm 2 m/s 753 mmHg 56%
02:00 +17°C° 0 mm 2 m/s 753 mmHg 58%
03:00 +17°C° 0 mm 2 m/s 753 mmHg 60%
04:00 +16°C° 0 mm 2 m/s 753 mmHg 63%
05:00 +16°C° 0 mm 2 m/s 753 mmHg 65%
06:00 +17°C° 0 mm 2 m/s 753 mmHg 64%
07:00 +17°C° 0 mm 2 m/s 754 mmHg 62%
08:00 +18°C° 0 mm 2 m/s 754 mmHg 61%
09:00 +20°C° 0 mm 2 m/s 754 mmHg 55%
10:00 +23°C° 0 mm 2 m/s 754 mmHg 49%
11:00 +25°C° 0 mm 2 m/s 754 mmHg 43%
12:00 +26°C° 0 mm 2 m/s 753 mmHg 38%
13:00 +28°C° 0 mm 1 m/s 753 mmHg 34%
14:00 +29°C° 0 mm 1 m/s 753 mmHg 30%
15:00 +29°C° 0 mm 2 m/s 753 mmHg 31%
16:00 +28°C° 0 mm 2 m/s 753 mmHg 32%
17:00 +28°C° 0 mm 2 m/s 753 mmHg 33%
18:00 +26°C° 0 mm 2 m/s 753 mmHg 37%
19:00 +25°C° 0 mm 3 m/s 754 mmHg 40%
20:00 +22°C° 0 mm 3 m/s 754 mmHg 44%
21:00 +21°C° 0 mm 3 m/s 754 mmHg 48%
22:00 +21°C° 0 mm 3 m/s 754 mmHg 53%
23:00 +20°C° 0 mm 3 m/s 754 mmHg 58%

4 Octombrie, Duminică

Timp Temperatura Precipitaţii Vânt Presiune Umiditate
00:00 +19°C° 0 mm 3 m/s 754 mmHg 62%
01:00 +19°C° 0 mm 3 m/s 754 mmHg 67%
02:00 +18°C° 0 mm 3 m/s 754 mmHg 71%
03:00 +18°C° 0 mm 3 m/s 754 mmHg 74%
04:00 +17°C° 0 mm 3 m/s 754 mmHg 77%
05:00 +17°C° 0 mm 3 m/s 754 mmHg 80%
06:00 +18°C° 0 mm 3 m/s 754 mmHg 77%
07:00 +18°C° 0 mm 4 m/s 754 mmHg 74%
08:00 +19°C° 0 mm 4 m/s 754 mmHg 71%
09:00 +22°C° 0 mm 4 m/s 754 mmHg 61%
10:00 +25°C° 0 mm 4 m/s 754 mmHg 51%
11:00 +28°C° 0 mm 4 m/s 754 mmHg 41%
12:00 +29°C° 0 mm 4 m/s 754 mmHg 36%
13:00 +32°C° 0 mm 4 m/s 754 mmHg 31%
14:00 +33°C° 0 mm 4 m/s 754 mmHg 27%
15:00 +33°C° 0 mm 4 m/s 753 mmHg 27%
16:00 +32°C° 0 mm 4 m/s 753 mmHg 28%
17:00 +32°C° 0 mm 4 m/s 753 mmHg 29%
18:00 +29°C° 0 mm 4 m/s 753 mmHg 36%
19:00 +27°C° 0 mm 5 m/s 753 mmHg 43%
20:00 +25°C° 0 mm 5 m/s 754 mmHg 50%
21:00 +23°C° 0.1 mm 5 m/s 754 mmHg 56%
22:00 +22°C° 0.1 mm 6 m/s 754 mmHg 61%
23:00 +21°C° 0.1 mm 6 m/s 754 mmHg 67%

5 Octombrie, Luni

Timp Temperatura Precipitaţii Vânt Presiune Umiditate
00:00 +21°C° 0 mm 6 m/s 754 mmHg 69%
01:00 +20°C° 0 mm 6 m/s 753 mmHg 71%
02:00 +20°C° 0 mm 6 m/s 753 mmHg 73%
03:00 +20°C° 0 mm 6 m/s 753 mmHg 75%
04:00 +19°C° 0 mm 5 m/s 753 mmHg 76%
05:00 +19°C° 0 mm 5 m/s 754 mmHg 77%
06:00 +20°C° 0 mm 5 m/s 754 mmHg 75%
07:00 +20°C° 0 mm 5 m/s 754 mmHg 73%
08:00 +21°C° 0 mm 5 m/s 754 mmHg 71%
09:00 +23°C° 0 mm 5 m/s 754 mmHg 62%
10:00 +26°C° 0 mm 4 m/s 754 mmHg 52%
11:00 +28°C° 0 mm 4 m/s 754 mmHg 43%
12:00 +30°C° 0 mm 4 m/s 754 mmHg 40%
13:00 +32°C° 0 mm 5 m/s 754 mmHg 36%
14:00 +33°C° 0 mm 6 m/s 753 mmHg 33%
15:00 +32°C° 0 mm 6 m/s 753 mmHg 34%
16:00 +32°C° 0 mm 7 m/s 753 mmHg 36%
17:00 +30°C° 0 mm 7 m/s 753 mmHg 37%
18:00 +29°C° 0 mm 6 m/s 753 mmHg 43%
19:00 +27°C° 0 mm 5 m/s 753 mmHg 49%
20:00 +25°C° 0 mm 3 m/s 754 mmHg 55%
21:00 +23°C° 0 mm 4 m/s 754 mmHg 58%
22:00 +22°C° 0 mm 5 m/s 753 mmHg 62%
23:00 +22°C° 0 mm 7 m/s 753 mmHg 65%

6 Octombrie, Marţi

Timp Temperatura Precipitaţii Vânt Presiune Umiditate
00:00 +21°C° 0 mm 6 m/s 753 mmHg 67%
01:00 +21°C° 0 mm 6 m/s 753 mmHg 69%
02:00 +21°C° 0 mm 6 m/s 752 mmHg 71%
03:00 +21°C° 0 mm 6 m/s 752 mmHg 73%
04:00 +20°C° 0 mm 7 m/s 752 mmHg 74%
05:00 +20°C° 0 mm 7 m/s 752 mmHg 75%
06:00 +20°C° 0 mm 7 m/s 752 mmHg 74%
07:00 +21°C° 0 mm 6 m/s 752 mmHg 72%
08:00 +21°C° 0 mm 5 m/s 751 mmHg 71%
09:00 +22°C° 0 mm 6 m/s 751 mmHg 65%
10:00 +23°C° 0 mm 6 m/s 751 mmHg 60%
11:00 +24°C° 0 mm 6 m/s 751 mmHg 54%
12:00 +26°C° 0.1 mm 6 m/s 751 mmHg 50%
13:00 +27°C° 0.1 mm 6 m/s 750 mmHg 46%
14:00 +28°C° 0.1 mm 6 m/s 750 mmHg 42%
15:00 +27°C° 0 mm 6 m/s 750 mmHg 44%
16:00 +27°C° 0 mm 5 m/s 750 mmHg 46%
17:00 +26°C° 0 mm 4 m/s 749 mmHg 48%
18:00 +25°C° 0.6 mm 5 m/s 749 mmHg 54%
19:00 +23°C° 0.6 mm 5 m/s 750 mmHg 61%
20:00 +22°C° 0.6 mm 5 m/s 750 mmHg 68%
21:00 +21°C° 0.4 mm 5 m/s 750 mmHg 70%
22:00 +21°C° 0.4 mm 4 m/s 750 mmHg 71%
23:00 +20°C° 0.4 mm 4 m/s 750 mmHg 73%
Arată mai mult

We Need Your Consent

Meteoprog and our Service Providers may store and access personal data such as cookies, device identifiers or other similar technologies on your device and process such data to personalise content and ads, as well as provide social media features and to analyse the traffic.

  • Store and/or access information on your device

    Cookies, device identifiers or other information can be stored or accessed on your device for the purposes indicated above.

  • Personalised ads and content, ad and content measurement, audience insights, and products development

    Ads and content can be personalised based on a profile. More data can be added to better personalise ads and content. Ad and content performance can be measured. Insights about the audience who saw the ads and content can be derived. Such data can be used to develop or improve user’s experience, systems and software.

By clicking ‘I Agree’ you will allow the use of indicated cookies, device identifiers, web beacons or other similar technologies. Your settings can be changed in the browser on your device.

For certain purposes, legitimate interests may be relied on, rather than consent. You can read more about this in our Privacy and Cookie Policy.